Time,TemperatureF,DewpointF,PressureIn,WindDirection,WindDirectionDegrees,WindSpeedMPH,WindSpeedGustMPH,Humidity,HourlyPrecipIn,Conditions,Clouds,dailyrainin,SolarRadiationWatts/m^2,SoftwareType,DateUTC
2013-05-25 00:01:00,49.0,36.0,-100.00,NNE,12,2.0,7.0,60,0.00,,,-99.99,1.000000,,2013-05-25 07:01:00,
2013-05-25 00:32:00,46.0,35.0,-100.00,North,352,1.0,9.0,64,0.00,,,0.00,1.000000,,2013-05-25 07:32:00,
2013-05-25 00:42:00,46.0,35.0,-100.00,North,352,1.0,9.0,64,0.00,,,0.00,1.000000,,2013-05-25 07:42:00,
2013-05-25 00:52:00,46.0,35.0,-100.00,North,352,1.0,9.0,64,0.00,,,0.00,1.000000,,2013-05-25 07:52:00,
2013-05-25 01:02:00,46.0,35.0,-100.00,North,352,1.0,9.0,64,0.00,,,0.00,1.000000,,2013-05-25 08:02:00,
2013-05-25 01:32:00,43.0,34.0,-100.00,SW,234,2.0,5.0,71,0.00,,,-99.99,1.000000,,2013-05-25 08:32:00,
2013-05-25 01:42:00,43.0,34.0,-100.00,SW,234,2.0,5.0,71,0.00,,,-99.99,1.000000,,2013-05-25 08:42:00,
2013-05-25 01:52:00,43.0,34.0,-100.00,SW,234,2.0,5.0,71,0.00,,,-99.99,1.000000,,2013-05-25 08:52:00,
2013-05-25 02:01:00,43.0,34.0,-100.00,SW,234,2.0,5.0,71,0.00,,,-99.99,1.000000,,2013-05-25 09:01:00,
2013-05-25 02:33:00,42.0,35.0,-100.00,SSW,208,3.0,5.0,75,0.00,,,0.00,1.000000,,2013-05-25 09:33:00,
2013-05-25 02:43:00,42.0,35.0,-100.00,SSW,208,3.0,5.0,75,0.00,,,0.00,1.000000,,2013-05-25 09:43:00,
2013-05-25 02:53:00,42.0,35.0,-100.00,SSW,208,3.0,5.0,75,0.00,,,0.00,1.000000,,2013-05-25 09:53:00,
2013-05-25 03:02:00,42.0,35.0,-100.00,SSW,208,3.0,5.0,75,0.00,,,0.00,1.000000,,2013-05-25 10:02:00,
2013-05-25 03:33:00,39.0,32.0,-100.00,SW,223,4.0,6.0,75,0.00,,,0.00,1.000000,,2013-05-25 10:33:00,
2013-05-25 03:42:00,39.0,32.0,-100.00,SW,223,4.0,6.0,75,0.00,,,0.00,1.000000,,2013-05-25 10:42:00,
2013-05-25 03:52:00,39.0,32.0,-100.00,SW,223,4.0,6.0,75,0.00,,,0.00,1.000000,,2013-05-25 10:52:00,
2013-05-25 04:02:00,39.0,32.0,-100.00,SW,223,4.0,6.0,75,0.00,,,0.00,1.000000,,2013-05-25 11:02:00,
2013-05-25 04:32:00,38.0,32.0,-100.00,SW,220,6.0,9.0,78,0.00,,,0.00,1.000000,,2013-05-25 11:32:00,
2013-05-25 04:42:00,38.0,32.0,-100.00,SW,220,6.0,9.0,78,0.00,,,0.00,1.000000,,2013-05-25 11:42:00,
2013-05-25 04:52:00,38.0,32.0,-100.00,SW,220,6.0,9.0,78,0.00,,,0.00,1.000000,,2013-05-25 11:52:00,
2013-05-25 05:01:00,38.0,32.0,-100.00,SW,220,6.0,9.0,78,0.00,,,0.00,1.000000,,2013-05-25 12:01:00,
2013-05-25 05:32:00,37.0,31.0,-100.00,WNW,289,2.0,10.0,79,0.00,,,0.00,1.000000,,2013-05-25 12:32:00,
2013-05-25 05:42:00,37.0,31.0,-100.00,WNW,289,2.0,10.0,79,0.00,,,0.00,1.000000,,2013-05-25 12:42:00,
2013-05-25 05:52:00,37.0,31.0,-100.00,WNW,289,2.0,10.0,79,0.00,,,0.00,1.000000,,2013-05-25 12:52:00,
2013-05-25 06:02:00,37.0,31.0,-100.00,WNW,289,2.0,10.0,79,0.00,,,0.00,1.000000,,2013-05-25 13:02:00,
2013-05-25 06:32:00,38.0,34.0,-100.00,SSW,199,4.0,6.0,85,0.00,,,0.00,19.000000,,2013-05-25 13:32:00,
2013-05-25 06:42:00,38.0,34.0,-100.00,SSW,199,4.0,6.0,85,0.00,,,0.00,19.000000,,2013-05-25 13:42:00,
2013-05-25 06:52:00,38.0,34.0,-100.00,SSW,199,4.0,6.0,85,0.00,,,0.00,19.000000,,2013-05-25 13:52:00,
2013-05-25 07:02:00,38.0,34.0,-100.00,SSW,199,4.0,6.0,85,0.00,,,0.00,19.000000,,2013-05-25 14:02:00,
2013-05-25 07:32:00,44.0,36.0,-100.00,South,171,3.0,7.0,73,0.00,,,0.00,163.000000,,2013-05-25 14:32:00,
2013-05-25 07:42:00,44.0,36.0,-100.00,South,171,3.0,7.0,73,0.00,,,0.00,163.000000,,2013-05-25 14:42:00,
2013-05-25 07:52:00,44.0,36.0,-100.00,South,171,3.0,7.0,73,0.00,,,0.00,163.000000,,2013-05-25 14:52:00,
2013-05-25 08:01:00,44.0,36.0,-100.00,South,171,3.0,7.0,73,0.00,,,0.00,163.000000,,2013-05-25 15:01:00,
2013-05-25 08:33:00,49.0,38.0,-100.00,East,98,3.0,6.0,65,0.00,,,0.00,286.000000,,2013-05-25 15:33:00,
2013-05-25 08:43:00,49.0,38.0,-100.00,East,98,3.0,6.0,65,0.00,,,0.00,286.000000,,2013-05-25 15:43:00,
2013-05-25 08:53:00,49.0,38.0,-100.00,East,98,3.0,6.0,65,0.00,,,0.00,286.000000,,2013-05-25 15:53:00,
2013-05-25 09:03:00,49.0,38.0,-100.00,East,98,3.0,6.0,65,0.00,,,0.00,286.000000,,2013-05-25 16:03:00,
2013-05-25 09:33:00,54.0,37.0,-100.00,NE,52,3.0,6.0,53,0.00,,,-99.99,507.000000,,2013-05-25 16:33:00,
2013-05-25 09:42:00,54.0,37.0,-100.00,NE,52,3.0,6.0,53,0.00,,,-99.99,507.000000,,2013-05-25 16:42:00,
2013-05-25 09:52:00,54.0,37.0,-100.00,NE,52,3.0,6.0,53,0.00,,,-99.99,507.000000,,2013-05-25 16:52:00,
2013-05-25 10:02:00,54.0,37.0,-100.00,NE,52,3.0,6.0,53,0.00,,,-99.99,507.000000,,2013-05-25 17:02:00,
2013-05-25 10:33:00,58.0,37.0,-100.00,East,91,5.0,9.0,46,0.00,,,0.00,642.000000,,2013-05-25 17:33:00,
2013-05-25 10:42:00,58.0,37.0,-100.00,East,91,5.0,9.0,46,0.00,,,0.00,642.000000,,2013-05-25 17:42:00,
2013-05-25 10:52:00,58.0,37.0,-100.00,East,91,5.0,9.0,46,0.00,,,0.00,642.000000,,2013-05-25 17:52:00,
2013-05-25 11:01:00,58.0,37.0,-100.00,East,91,5.0,9.0,46,0.00,,,0.00,642.000000,,2013-05-25 18:01:00,
2013-05-25 11:32:00,61.0,38.0,-100.00,ENE,59,5.0,11.0,42,0.00,,,0.00,770.000000,,2013-05-25 18:32:00,
2013-05-25 11:42:00,61.0,38.0,-100.00,ENE,59,5.0,11.0,42,0.00,,,0.00,770.000000,,2013-05-25 18:42:00,
2013-05-25 11:52:00,61.0,38.0,-100.00,ENE,59,5.0,11.0,42,0.00,,,0.00,770.000000,,2013-05-25 18:52:00,
2013-05-25 12:01:00,61.0,38.0,-100.00,ENE,59,5.0,11.0,42,0.00,,,0.00,770.000000,,2013-05-25 19:01:00,
2013-05-25 12:32:00,63.0,34.0,-100.00,ESE,123,5.0,11.0,34,0.00,,,0.00,850.000000,,2013-05-25 19:32:00,
2013-05-25 12:42:00,63.0,34.0,-100.00,ESE,123,5.0,11.0,34,0.00,,,0.00,850.000000,,2013-05-25 19:42:00,
2013-05-25 12:52:00,63.0,34.0,-100.00,ESE,123,5.0,11.0,34,0.00,,,0.00,850.000000,,2013-05-25 19:52:00,
2013-05-25 13:02:00,63.0,34.0,-100.00,ESE,123,5.0,11.0,34,0.00,,,0.00,850.000000,,2013-05-25 20:02:00,
2013-05-25 13:32:00,67.0,35.0,-100.00,NNE,13,3.0,12.0,30,0.00,,,0.00,907.000000,,2013-05-25 20:32:00,
2013-05-25 13:42:00,67.0,35.0,-100.00,NNE,13,3.0,12.0,30,0.00,,,0.00,907.000000,,2013-05-25 20:42:00,
2013-05-25 13:52:00,67.0,35.0,-100.00,NNE,13,3.0,12.0,30,0.00,,,0.00,907.000000,,2013-05-25 20:52:00,
2013-05-25 14:01:00,67.0,35.0,-100.00,NNE,13,3.0,12.0,30,0.00,,,0.00,907.000000,,2013-05-25 21:01:00,
2013-05-25 14:33:00,68.0,35.0,-100.00,SE,133,5.0,11.0,29,0.00,,,0.00,831.000000,,2013-05-25 21:33:00,
2013-05-25 14:43:00,68.0,35.0,-100.00,SE,133,5.0,11.0,29,0.00,,,0.00,831.000000,,2013-05-25 21:43:00,
2013-05-25 14:53:00,68.0,35.0,-100.00,SE,133,5.0,11.0,29,0.00,,,0.00,831.000000,,2013-05-25 21:53:00,
2013-05-25 15:02:00,68.0,35.0,-100.00,SE,133,5.0,11.0,29,0.00,,,0.00,831.000000,,2013-05-25 22:02:00,
2013-05-25 15:33:00,70.0,34.0,-100.00,NE,51,5.0,16.0,27,0.00,,,0.00,793.000000,,2013-05-25 22:33:00,
2013-05-25 15:42:00,70.0,34.0,-100.00,NE,51,5.0,16.0,27,0.00,,,0.00,793.000000,,2013-05-25 22:42:00,
2013-05-25 15:52:00,70.0,34.0,-100.00,NE,51,5.0,16.0,27,0.00,,,0.00,793.000000,,2013-05-25 22:52:00,
2013-05-25 16:02:00,70.0,34.0,-100.00,NE,51,5.0,16.0,27,0.00,,,0.00,793.000000,,2013-05-25 23:02:00,
2013-05-25 16:32:00,71.0,35.0,-100.00,NNE,19,6.0,11.0,27,0.00,,,0.00,516.000000,,2013-05-25 23:32:00,
2013-05-25 16:42:00,71.0,35.0,-100.00,NNE,19,6.0,11.0,27,0.00,,,0.00,516.000000,,2013-05-25 23:42:00,
2013-05-25 16:52:00,71.0,35.0,-100.00,NNE,19,6.0,11.0,27,0.00,,,0.00,516.000000,,2013-05-25 23:52:00,
2013-05-25 17:01:00,71.0,35.0,-100.00,NNE,19,6.0,11.0,27,0.00,,,0.00,516.000000,,2013-05-26 00:01:00,
2013-05-25 17:32:00,69.0,34.0,-100.00,NE,39,6.0,12.0,27,0.00,,,0.00,408.000000,,2013-05-26 00:32:00,
2013-05-25 17:43:00,69.0,34.0,-100.00,NE,39,6.0,12.0,27,0.00,,,0.00,408.000000,,2013-05-26 00:43:00,
2013-05-25 17:52:00,69.0,34.0,-100.00,NE,39,6.0,12.0,27,0.00,,,0.00,408.000000,,2013-05-26 00:52:00,
2013-05-25 18:01:00,69.0,34.0,-100.00,NE,39,6.0,12.0,27,0.00,,,0.00,408.000000,,2013-05-26 01:01:00,
2013-05-25 18:32:00,68.0,35.0,-100.00,NNE,28,9.0,17.0,30,0.00,,,0.00,270.000000,,2013-05-26 01:32:00,
2013-05-25 18:42:00,68.0,35.0,-100.00,NNE,28,9.0,17.0,30,0.00,,,0.00,270.000000,,2013-05-26 01:42:00,
2013-05-25 18:52:00,68.0,35.0,-100.00,NNE,28,9.0,17.0,30,0.00,,,0.00,270.000000,,2013-05-26 01:52:00,
2013-05-25 19:02:00,68.0,35.0,-100.00,NNE,28,9.0,17.0,30,0.00,,,0.00,270.000000,,2013-05-26 02:02:00,
2013-05-25 19:32:00,67.0,35.0,-100.00,NNE,31,8.0,14.0,30,0.00,,,0.00,206.000000,,2013-05-26 02:32:00,
2013-05-25 19:42:00,67.0,35.0,-100.00,NNE,31,8.0,14.0,30,0.00,,,0.00,206.000000,,2013-05-26 02:42:00,
2013-05-25 19:52:00,67.0,35.0,-100.00,NNE,31,8.0,14.0,30,0.00,,,0.00,206.000000,,2013-05-26 02:52:00,
2013-05-25 20:01:00,67.0,35.0,-100.00,NNE,31,8.0,14.0,30,0.00,,,0.00,206.000000,,2013-05-26 03:01:00,
2013-05-25 20:33:00,65.0,35.0,-100.00,NE,40,9.0,14.0,33,0.00,,,0.00,51.000000,,2013-05-26 03:33:00,
2013-05-25 20:43:00,65.0,35.0,-100.00,NE,40,9.0,14.0,33,0.00,,,0.00,51.000000,,2013-05-26 03:43:00,
2013-05-25 20:53:00,65.0,35.0,-100.00,NE,40,9.0,14.0,33,0.00,,,0.00,51.000000,,2013-05-26 03:53:00,
2013-05-25 21:02:00,65.0,35.0,-100.00,NE,40,9.0,14.0,33,0.00,,,0.00,51.000000,,2013-05-26 04:02:00,
2013-05-25 21:33:00,59.0,40.0,-100.00,West,267,5.0,12.0,49,0.00,,,0.00,3.000000,,2013-05-26 04:33:00,
2013-05-25 21:42:00,59.0,40.0,-100.00,West,267,5.0,12.0,49,0.00,,,0.00,3.000000,,2013-05-26 04:42:00,
2013-05-25 21:52:00,59.0,40.0,-100.00,West,267,5.0,12.0,49,0.00,,,0.00,3.000000,,2013-05-26 04:52:00,
2013-05-25 22:02:00,59.0,40.0,-100.00,West,267,5.0,12.0,49,0.00,,,0.00,3.000000,,2013-05-26 05:02:00,
2013-05-25 22:32:00,54.0,47.0,-100.00,NNW,338,4.0,11.0,78,0.04,,,0.04,1.000000,,2013-05-26 05:32:00,
2013-05-25 22:42:00,54.0,47.0,-100.00,NNW,338,4.0,11.0,78,0.04,,,0.04,1.000000,,2013-05-26 05:42:00,
2013-05-25 22:52:00,54.0,47.0,-100.00,NNW,338,4.0,11.0,78,0.04,,,0.04,1.000000,,2013-05-26 05:52:00,
2013-05-25 23:01:00,54.0,47.0,-100.00,NNW,338,4.0,11.0,78,0.04,,,0.04,1.000000,,2013-05-26 06:01:00,
2013-05-25 23:32:00,53.0,49.0,-100.00,WNW,298,2.0,7.0,86,0.03,,,0.07,1.000000,,2013-05-26 06:32:00,
2013-05-25 23:42:00,53.0,49.0,-100.00,WNW,298,2.0,7.0,86,0.03,,,0.07,1.000000,,2013-05-26 06:42:00,
2013-05-25 23:52:00,53.0,49.0,-100.00,WNW,298,2.0,7.0,86,0.03,,,0.07,1.000000,,2013-05-26 06:52:00,